Lumberton, NC

3:15 PM EST on January 21, 2017 (GMT -0500)
Lumberton

Weather History for KLBT - November, 2013

Change the Weather History Date:

Friday, November 8, 2013

  Actual Average Record
Temperature  
Mean Temperature 48 °F 56 °F  
Max Temperature 62 °F 70 °F 81 °F (2005)
Min Temperature 33 °F 43 °F 29 °F (2007)
Degree Days  
Heating Degree Days 17 9  
Month to date heating degree days 63 67  
Since 1 July heating degree days 167 199  
Cooling Degree Days 0 1  
Month to date cooling degree days 9 8  
Year to date cooling degree days 1856 1902  
Moisture  
Dew Point 31 °F    
Average Humidity 58    
Maximum Humidity 92    
Minimum Humidity 23    
Precipitation  
Precipitation 0.00 in 0.09 in 0.04 in (2006)
Month to date precipitation 0.57 0.67  
Year to date precipitation 38.30 38.43  
Sea Level Pressure  
Sea Level Pressure 30.25 in    
Wind  
Wind Speed 6 mph (North)    
Max Wind Speed 16 mph    
Max Gust Speed 22 mph    
Visibility 10 miles    
Events      
T = Trace of Precipitation, MM = Missing Value Source: NWS Daily Summary

Daily Weather History Graph

Daily Weather History Graph

Search for Another Location

Airport or City:

Trip Planner

Search our weather history database for the weather conditions in past years. The results will help you decide how hot, cold, wet, or windy it might be!

Date:

Astronomy

Nov. 08, 2013 Rise Set
Actual Time 6:43 AM EST 5:16 PM EST
Civil Twilight 6:16 AM EST 5:42 PM EST
Nautical Twilight 5:46 AM EST 6:12 PM EST
Astronomical Twilight 5:17 AM EST 6:42 PM EST
Moon 11:37 AM EST (11/8) 10:34 PM EST (11/8)
Length of Visible Light 11h 25m
Length of Day
10h 32m
Waxing Crescent, 33% of the Moon is Illuminated
Nov 8
Waxing Crescent
Nov 10
First Quarter
Nov 17
Full
Nov 25
Last Quarter
Dec 2
New

Hourly Weather History & Observations

Time (EST) Temp. Windchill Dew Point Humidity Pressure Visibility Wind Dir Wind Speed Gust Speed Precip Events Conditions
12:54 AM 48.0 °F - 34.0 °F 58% 30.11 in 10.0 mi North 8.1 mph - N/A   Clear
1:54 AM 48.0 °F - 34.0 °F 58% 30.13 in 10.0 mi North 12.7 mph 19.6 mph N/A   Clear
2:54 AM 46.0 °F 43.1 °F 34.0 °F 63% 30.16 in 10.0 mi NNW 5.8 mph - N/A   Clear
3:54 AM 44.1 °F 40.8 °F 34.0 °F 68% 30.18 in 10.0 mi North 5.8 mph - N/A   Clear
4:54 AM 42.1 °F 40.2 °F 33.1 °F 70% 30.21 in 10.0 mi North 3.5 mph - N/A   Clear
5:54 AM 39.9 °F 37.8 °F 33.1 °F 77% 30.23 in 10.0 mi North 3.5 mph - N/A   Clear
6:54 AM 37.9 °F - 32.0 °F 79% 30.25 in 10.0 mi Calm Calm - N/A   Clear
7:54 AM 44.1 °F 42.5 °F 33.1 °F 65% 30.27 in 10.0 mi North 3.5 mph - N/A   Clear
8:54 AM 48.9 °F - 30.9 °F 50% 30.29 in 10.0 mi North 10.4 mph - N/A   Clear
9:54 AM 53.1 °F - 28.0 °F 38% 30.29 in 10.0 mi North 12.7 mph 17.3 mph N/A   Clear
10:54 AM 55.0 °F - 27.0 °F 34% 30.30 in 10.0 mi North 15.0 mph 20.7 mph N/A   Clear
11:54 AM 57.0 °F - 28.0 °F 33% 30.27 in 10.0 mi North 9.2 mph - N/A   Clear
12:54 PM 60.1 °F - 26.1 °F 27% 30.24 in 10.0 mi NW 9.2 mph 19.6 mph N/A   Clear
1:54 PM 61.0 °F - 24.1 °F 24% 30.21 in 10.0 mi NW 6.9 mph - N/A   Clear
2:54 PM 62.1 °F - 24.1 °F 23% 30.21 in 10.0 mi North 11.5 mph - N/A   Clear
3:54 PM 60.1 °F - 23.0 °F 24% 30.22 in 10.0 mi NNW 11.5 mph - N/A   Clear
4:54 PM 57.0 °F - 25.0 °F 29% 30.25 in 10.0 mi NNW 5.8 mph - N/A   Clear
5:54 PM 45.0 °F - 34.0 °F 65% 30.26 in 10.0 mi Calm Calm - N/A   Clear
6:54 PM 43.0 °F - 36.0 °F 76% 30.28 in 10.0 mi Calm Calm - N/A   Clear
7:54 PM 41.0 °F - 34.0 °F 76% 30.28 in 10.0 mi Calm Calm - N/A   Clear
8:54 PM 36.0 °F - 33.1 °F 89% 30.31 in 10.0 mi Calm Calm - N/A   Clear
9:54 PM 37.0 °F - 34.0 °F 89% 30.32 in 10.0 mi Calm Calm - N/A   Clear
10:54 PM 35.1 °F - 33.1 °F 92% 30.32 in 10.0 mi Calm Calm - N/A   Clear
11:54 PM 34.0 °F - 33.1 °F 96% 30.33 in 10.0 mi Calm Calm - N/A   Clear